Location: Rockford
(42.2710°N, 89.0940°W)
Time: 17:03:50
(UTC-06:00)

Daily predictions for brighter satellites

Satellite Brightness Start Highest point End
(mag) Time Altitude Azimuth Time Altitude Azimuth Time Altitude Azimuth
Cosmos 2016 Rocket 4.1 16:53:35 10° S 16:59:56 85° E 17:06:14 10° N
COSMO-SKYMED 1 4.1 16:58:19 10° NE 17:01:05 16° E 17:03:50 10° SE
Cosmos 332 Rocket 4.0 16:58:03 10° NNW 17:02:56 79° WSW 17:07:48 10° SSE
BREEZE-M R/B 3.1 17:00:55 10° NW 17:03:13 30° NNE 17:06:24 10° E
YAOGAN 1 3.5 16:59:58 10° SE 17:03:37 27° ENE 17:07:16 10° N
CZ-4 R/B 1.8 17:03:56 10° SE 17:07:32 38° ENE 17:11:07 10° N
Cosmos 1763 Rocket 3.9 17:03:10 10° N 17:08:04 38° ENE 17:12:51 10° SE
CSL-04 Debris 4.2 17:03:08 10° SSE 17:08:32 69° ENE 17:13:55 10° N
Meteor 1-26 Rocket 4.5 17:04:50 10° SSE 17:10:09 46° E 17:15:25 10° NNE
Centaur D AC-28 4.4 17:06:53 10° S 17:10:12 18° SE 17:16:49 10° ESE
Meteor 2-12 Rocket 4.5 17:04:39 10° S 17:10:39 64° E 17:16:39 10° NNE
Cosmos 1933 3.4 17:10:16 10° S 17:14:18 87° W 17:18:21 10° N
Cosmos 1844 3.8 17:10:37 10° SSW 17:16:22 83° ESE 17:22:12 10° NNE
Cosmos 1814 Rocket 4.2 17:11:51 10° N 17:17:05 52° ENE 17:22:18 10° SE
SJ-7 4.4 17:13:06 10° SSE 17:17:17 82° ENE 17:21:26 10° N
Cosmos 1833 Rocket 3.8 17:13:09 10° N 17:17:27 22° NE 17:21:43 10° E
ALOS 3.5 17:14:50 10° ESE 17:18:15 21° ENE 17:21:41 10° NNE
Aureole 3 4.1 17:15:48 10° N 17:20:17 81° W 17:26:03 10° S
Cosmos 2278 Rocket 2.6 17:16:59 10° S 17:22:20 45° ESE 17:27:44 10° NE
SL-27 R/B 3.8 17:20:16 10° NNE 17:22:40 18° ENE 17:25:00 10° ESE
Centaur D AC-29 4.0 17:16:33 10° WSW 17:23:27 18° SSW 17:26:51 10° SSE
Cosmos 1703 Rocket 4.5 17:21:03 10° SSE 17:24:50 28° E 17:28:39 10° NNE
CZ-2C R/B 4.3 17:23:38 10° SSW 17:28:10 36° W 17:32:51 10° NNW
SMAP 3.1 17:23:31 10° SSE 17:28:11 89° W 17:32:51 10° NNW
Cosmos 1633 3.7 17:27:33 10° NNE 17:30:31 23° ENE 17:33:28 10° SE
Ariane Rocket 3.2 17:26:40 10° S 17:31:45 75° WSW 17:36:52 10° NNW
Okean 2 Rocket 4.5 17:28:49 10° NNE 17:31:57 18° ENE 17:35:05 10° ESE
Cosmos 1484 Rocket 3.1 17:31:19 10° S 17:35:07 68° W 17:39:02 10° NNW
CORIOLIS 4.2 17:30:44 10° SSE 17:36:11 90° WNW 17:41:40 10° NNW
Meteor 1-28 Rocket 3.1 17:35:02 10° NNE 17:38:45 87° ESE 17:42:27 10° SSW
Cosmos 540 Rocket 4.2 17:35:52 10° N 17:40:24 30° ENE 17:44:54 10° ESE
Cosmos 841 Rocket 3.5 17:36:38 10° NNW 17:41:51 57° ENE 17:47:01 10° SE
USA 234 3.5 17:36:48 14° ENE 17:42:18 54° SE 17:48:39 10° SSW
Cosmos 1606 3.3 17:39:25 10° SSE 17:42:50 33° E 17:45:11 17° NE
EO 1 Del DPAF 3.6 17:41:40 11° NNE 17:45:14 43° E 17:48:53 10° S
Cosmos 1486 Rocket 4.0 17:40:17 10° S 17:45:22 59° ESE 17:50:32 10° NNE
Landsat 4 3.6 17:45:09 10° NNE 17:48:57 84° ESE 17:52:45 10° SSW
Cosmos 2233 Rocket 4.0 17:42:48 10° S 17:49:05 89° W 17:55:21 10° N
SKYMED 2 3.7 17:45:09 10° NNE 17:49:25 53° E 17:53:39 10° S
Cosmos 1908 Rocket 3.4 17:45:28 10° N 17:49:48 69° E 17:54:06 10° SSE
MTI 3.6 17:47:07 12° NNE 17:50:06 69° E 17:53:19 10° S
Cosmos 1782 3.2 17:46:50 10° SSE 17:50:38 41° E 17:53:34 16° NNE
Meteor 1-25 Rocket 4.2 17:47:00 10° N 17:52:52 77° ENE 17:58:41 10° SSE
Cosmos 1733 Rocket 4.3 17:48:46 10° NNW 17:53:00 45° W 17:57:13 10° SSW
SPOT 3 Rocket 3.6 17:50:45 10° SSE 17:55:50 56° ENE 18:00:57 10° N
BREEZE-M DEB (TANK) 2.2 17:54:18 10° SW 17:56:19 47° SE 17:56:41 42° ESE
Sich 1 Rocket 3.5 17:52:52 10° N 17:57:17 69° E 18:01:43 10° SSE
Meteor 1-20 Rocket 4.1 17:51:56 10° N 17:57:33 76° E 18:03:01 10° SSE
CZ-4C R/B 3.7 17:53:37 10° NNW 17:59:35 29° NE 18:02:17 24° ENE
Lacrosse 5 3.8 17:56:18 10° WNW 17:59:58 20° NNW 18:03:04 12° NNE
Cosmos 1354 Rocket 4.4 17:56:04 10° S 18:00:59 41° ESE 18:03:33 25° NE
Cosmos 2082 Rocket 2.5 17:56:08 10° NNW 18:01:34 44° ENE 18:05:55 15° SE
NOAA 12 4.1 18:00:16 10° SSE 18:05:29 60° ENE 18:10:43 10° N
Cosmos 972 4.5 18:00:50 10° NNW 18:05:54 79° WSW 18:10:45 10° S
Cosmos 44 Rocket 4.2 18:06:13 10° NNW 18:10:24 29° NE 18:10:24 29° NE
Cosmos 405 Rocket 4.3 18:08:33 10° SSE 18:10:03 20° SE 18:10:03 20° SE
Meteor 1-27 Rocket 4.3 18:08:29 10° SSE 18:13:49 37° E 18:15:38 30° NE
Cosmos 1513 Rocket 4.5 18:10:18 10° S 18:16:28 58° E 18:22:34 10° NNE
METEOR-M 4.5 18:13:58 10° S 18:19:15 66° WSW 18:24:35 10° NNW
Meteor 1-10 Rocket 4.1 18:15:13 10° S 18:20:49 70° E 18:26:34 10° NNE
ERS-2 3.5 18:20:51 10° S 18:24:20 40° W 18:27:50 10° NNW
ERBS 4.1 18:21:40 10° WNW 18:24:42 31° SW 18:27:00 15° S
Okean 1-7 2.9 18:21:48 10° S 18:26:11 90° WNW 18:29:04 21° N
Cosmos 292 Rocket 4.3 18:22:25 10° N 18:26:00 39° NNE 18:26:00 39° NNE
Cosmos 1891 Rocket 4.3 18:22:14 10° S 18:28:22 69° E 18:34:26 10° NNE
CENTAUR R/B 3.9 18:23:17 10° WSW 18:28:54 33° NW 18:34:36 12° NNE
Thor Agena Rocket 4.0 18:30:42 41° SE 18:30:42 41° SE 18:34:43 10° S
Cosmos 1782 Rocket 3.8 18:29:44 10° NNW 18:34:03 67° W 18:38:22 10° S
BREEZE-M DEB (TANK) 3.5 18:32:54 10° NW 18:34:21 28° NNW 18:34:21 28° NNW
COSMO-SKYMED 1 3.6 18:33:19 10° N 18:37:28 45° WNW 18:41:36 10° SW
COSMOS 2455 4.2 18:34:42 10° WSW 18:40:07 34° NW 18:44:57 13° NNE
CZ-4 R/B 4.4 18:40:24 10° SW 18:42:44 15° W 18:45:03 10° NW
Celestis-02/Orion 38 4.4 18:43:09 65° ESE 18:43:20 66° ESE 18:48:29 10° SSW
Timation 2 Rocket 4.4 18:37:35 10° NNW 18:43:48 44° NE 18:43:48 44° NE
Cosmos 44 3.8 18:43:06 10° NNW 18:46:29 45° N 18:46:29 45° N
Cosmos 2034 Rocket 3.9 18:41:27 10° S 18:47:50 84° E 18:54:13 10° N
Nadezhda 4 Rocket 3.8 18:41:56 10° N 18:48:02 65° E 18:50:08 41° SE
Cosmos 2221 Rocket 4.1 18:44:15 10° SSW 18:48:34 56° W 18:50:41 28° NNW
Meteor 1-11 Rocket 3.6 18:44:32 10° N 18:50:27 76° E 18:53:04 34° SSE
FENGYUN 3A 4.4 18:49:22 10° S 18:54:39 53° W 18:59:56 10° NNW
ALOS 3.4 18:50:56 10° S 18:55:22 43° W 18:59:51 10° NNW
Cosmos 2297 3.8 18:53:33 10° SSW 18:59:14 73° WNW 19:00:47 49° N
Cosmos 1833 Rocket 3.0 18:56:16 10° NNW 19:01:49 63° WSW 19:05:02 25° S
Cosmos 2278 Rocket 3.9 19:01:43 10° WSW 19:06:35 29° NW 19:10:32 14° N
Okean 2 Rocket 4.2 19:05:58 10° NNW 19:10:15 42° W 19:14:30 10° SSW
USA 234 3.8 19:24:10 47° N 19:25:16 51° NNW 19:31:32 10° WSW
Cosmos 2082 Rocket 4.0 19:40:41 10° NW 19:45:25 28° WSW 19:47:57 20° SW
CZ-4C R/B 3.2 19:41:41 10° NW 19:47:31 63° NW 19:47:31 63° NW
